Weather History for KEYW - November, 2010

Change the Weather History Date:

Saturday, November 20, 2010

  Actual Average Record
Temperature  
Mean Temperature 75 °F 75 °F  
Max Temperature 80 °F 79 °F 87 °F (1880)
Min Temperature 70 °F 71 °F 54 °F (1873)
Degree Days  
Heating Degree Days 0 0  
Month to date heating degree days 0 0  
Since 1 July heating degree days 0 0  
Cooling Degree Days 10 10  
Month to date cooling degree days 178 230  
Year to date cooling degree days 4246 4438  
Growing Degree Days 24 (Base 50)    
Moisture  
Dew Point 66 °F    
Average Humidity 73    
Maximum Humidity 84    
Minimum Humidity 62    
Precipitation  
Precipitation 0.00 in 0.06 in 7.71 in (1959)
Month to date precipitation 1.99 1.58  
Year to date precipitation 37.81 36.89  
Snow  
Snow 0.00 in - - ()
Month to date snowfall 0.0  
Since 1 July snowfall 0.0  
Since 1 September snowfall 0.0  
Snow Depth 0.00 in    
Sea Level Pressure  
Sea Level Pressure 30.16 in    
Wind  
Wind Speed 8 mph (NE)    
Max Wind Speed 14 mph    
Max Gust Speed 20 mph    
Visibility 10 miles    
Events      
T = Trace of Precipitation, MM = Missing Value Source: NWS Daily Summary

Daily Weather History Graph

Daily Weather History Graph

Search for Another Location

Airport or City:

Trip Planner

Search our weather history database for the weather conditions in past years. The results will help you decide how hot, cold, wet, or windy it might be!

Date:

Astronomy

Nov. 20, 2010 Rise Set
Actual Time 6:46 AM EST 5:38 PM EST
Civil Twilight 6:22 AM EST 6:02 PM EST
Nautical Twilight 5:54 AM EST 6:30 PM EST
Astronomical Twilight 5:27 AM EST 6:58 PM EST
Moon 4:48 PM EST (11/20) 5:42 AM EST (11/20)
Length of Visible Light 11h 40m
Length of Day
10h 52m
Waxing Gibbous, 99% of the Moon is Illuminated
Nov 20
Waxing Gibbous
Nov 21
Full
Nov 28
Last Quarter
Dec 5
New
Dec 13
First Quarter

Hourly Weather History & Observations

Time (EST) Temp. Dew Point Humidity Pressure Visibility Wind Dir Wind Speed Gust Speed Precip Events Conditions
12:53 AM 72.0 °F 64.0 °F 76% 30.15 in 10.0 mi NNE 9.2 mph - N/A   Clear
1:53 AM 71.1 °F 64.0 °F 78% 30.13 in 10.0 mi NE 6.9 mph - N/A   Partly Cloudy
2:53 AM 71.1 °F 64.0 °F 78% 30.12 in 10.0 mi NE 8.1 mph - N/A   Clear
3:53 AM 70.0 °F 64.0 °F 81% 30.12 in 10.0 mi NE 9.2 mph - N/A   Clear
4:53 AM 70.0 °F 64.0 °F 81% 30.12 in 10.0 mi NE 9.2 mph - N/A   Clear
5:53 AM 70.0 °F 64.0 °F 81% 30.14 in 10.0 mi NE 6.9 mph - N/A   Clear
6:53 AM 70.0 °F 64.0 °F 81% 30.16 in 10.0 mi NE 8.1 mph - N/A   Clear
7:53 AM 71.1 °F 64.0 °F 78% 30.18 in 10.0 mi NE 6.9 mph - N/A   Clear
8:53 AM 73.0 °F 64.0 °F 73% 30.20 in 10.0 mi NE 4.6 mph - N/A   Clear
9:53 AM 75.0 °F 64.0 °F 69% 30.21 in 10.0 mi NE 9.2 mph - N/A   Clear
10:53 AM 75.9 °F 64.9 °F 69% 30.21 in 10.0 mi NE 9.2 mph - N/A   Clear
11:53 AM 77.0 °F 64.0 °F 64% 30.19 in 10.0 mi NE 8.1 mph - N/A   Clear
12:53 PM 78.1 °F 64.9 °F 64% 30.17 in 10.0 mi NE 6.9 mph - N/A   Clear
1:53 PM 79.0 °F 66.9 °F 66% 30.14 in 10.0 mi NE 10.4 mph 17.3 mph N/A   Partly Cloudy
2:53 PM 79.0 °F 66.0 °F 64% 30.14 in 10.0 mi NE 10.4 mph 16.1 mph N/A   Scattered Clouds
3:53 PM 78.1 °F 66.0 °F 66% 30.14 in 10.0 mi East 9.2 mph 16.1 mph N/A   Mostly Cloudy
4:53 PM 77.0 °F 66.0 °F 69% 30.14 in 10.0 mi East 9.2 mph - N/A   Partly Cloudy
5:53 PM 75.0 °F 66.0 °F 73% 30.15 in 10.0 mi ENE 8.1 mph - N/A   Clear
6:53 PM 73.9 °F 66.9 °F 79% 30.16 in 10.0 mi ENE 10.4 mph - N/A   Clear
7:53 PM 73.9 °F 68.0 °F 82% 30.17 in 10.0 mi NE 5.8 mph - N/A   Clear
8:53 PM 73.0 °F 68.0 °F 84% 30.19 in 10.0 mi NE 6.9 mph - N/A   Clear
9:53 PM 73.0 °F 68.0 °F 84% 30.19 in 10.0 mi ENE 5.8 mph - N/A   Clear
10:53 PM 73.0 °F 68.0 °F 84% 30.20 in 10.0 mi NE 5.8 mph - N/A   Clear
11:53 PM 73.0 °F 69.1 °F 87% 30.19 in 10.0 mi ENE 6.9 mph - N/A   Clear